When you browse on this site, cookies collect data to enhance your experience and personalize the content and advertising you see.
Visit our Privacy Policy to learn more. By continuing to use the site, you agree to this use of cookies and data.
  • In Germany
  • List of Countries
  • For 7 days
  • Water Temperature
  • Satellite Maps
  • Weather Map
  • Weather Widgets
  • user-avatar
    Login

    Hourly Weather Lipovskaya

    Today, 20 February, Wednesday

    Time Temperature Precipitation Wind Pressure Humidity
    00:00 -4°C° 0 mm 6 mps 738 mmHg 90%
    01:00 -4°C° 0 mm 6 mps 738 mmHg 91%
    02:00 -3°C° 0 mm 6 mps 737 mmHg 92%
    03:00 -1°C° 0.1 mm 5 mps 737 mmHg 93%
    04:00 -1°C° 0.1 mm 5 mps 736 mmHg 94%
    05:00 -1°C° 0.1 mm 5 mps 736 mmHg 95%
    06:00 -1°C° 0 mm 5 mps 736 mmHg 95%
    07:00 -1°C° 0 mm 5 mps 736 mmHg 96%
    08:00 -1°C° 0 mm 4 mps 735 mmHg 96%
    09:00 -1°C° 0 mm 4 mps 735 mmHg 97%
    10:00 -1°C° 0 mm 4 mps 735 mmHg 97%
    11:00 -1°C° 0 mm 4 mps 735 mmHg 98%
    12:00 -1°C° 0.1 mm 5 mps 735 mmHg 98%
    13:00 -1°C° 0.1 mm 5 mps 735 mmHg 98%
    14:00 -1°C° 0.1 mm 5 mps 735 mmHg 98%
    15:00 -1°C° 0.1 mm 5 mps 734 mmHg 96%
    16:00 -1°C° 0.1 mm 5 mps 734 mmHg 94%
    17:00 -1°C° 0.1 mm 5 mps 734 mmHg 92%
    18:00 -2°C° 0.2 mm 6 mps 734 mmHg 92%
    19:00 -2°C° 0.2 mm 6 mps 734 mmHg 91%
    20:00 -2°C° 0.2 mm 6 mps 733 mmHg 91%
    21:00 -2°C° 0.5 mm 6 mps 733 mmHg 90%
    22:00 -2°C° 0.5 mm 7 mps 733 mmHg 88%
    23:00 -2°C° 0.5 mm 7 mps 732 mmHg 87%

    Tomorrow, 21 February, Thursday

    Time Temperature Precipitation Wind Pressure Humidity
    00:00 -4°C° 0 mm 6 mps 733 mmHg 86%
    01:00 -6°C° 0 mm 6 mps 733 mmHg 85%
    02:00 -9°C° 0 mm 6 mps 733 mmHg 83%
    03:00 -9°C° 0.1 mm 6 mps 733 mmHg 83%
    04:00 -8°C° 0.1 mm 7 mps 734 mmHg 82%
    05:00 -8°C° 0.1 mm 7 mps 734 mmHg 82%
    06:00 -9°C° 0 mm 7 mps 734 mmHg 81%
    07:00 -9°C° 0 mm 7 mps 735 mmHg 80%
    08:00 -9°C° 0 mm 7 mps 735 mmHg 80%
    09:00 -9°C° 0 mm 7 mps 736 mmHg 79%
    10:00 -10°C° 0 mm 8 mps 736 mmHg 78%
    11:00 -8°C° 0 mm 8 mps 736 mmHg 77%
    12:00 -8°C° 0.1 mm 8 mps 737 mmHg 76%
    13:00 -8°C° 0.1 mm 8 mps 737 mmHg 76%
    14:00 -8°C° 0.1 mm 8 mps 737 mmHg 75%
    15:00 -8°C° 0 mm 7 mps 738 mmHg 76%
    16:00 -8°C° 0 mm 7 mps 738 mmHg 76%
    17:00 -9°C° 0 mm 6 mps 739 mmHg 77%
    18:00 -9°C° 0 mm 6 mps 739 mmHg 79%
    19:00 -10°C° 0 mm 6 mps 740 mmHg 80%
    20:00 -10°C° 0 mm 5 mps 740 mmHg 82%
    21:00 -11°C° 0 mm 5 mps 741 mmHg 81%
    22:00 -11°C° 0 mm 5 mps 741 mmHg 80%
    23:00 -12°C° 0 mm 5 mps 741 mmHg 79%

    Day after tomorrow, 22 February, Friday

    Time Temperature Precipitation Wind Pressure Humidity
    00:00 -13°C° 0 mm 5 mps 742 mmHg 79%
    01:00 -13°C° 0 mm 5 mps 742 mmHg 80%
    02:00 -14°C° 0 mm 5 mps 743 mmHg 80%
    03:00 -14°C° 0 mm 5 mps 743 mmHg 80%
    04:00 -15°C° 0 mm 5 mps 743 mmHg 80%
    05:00 -15°C° 0 mm 5 mps 744 mmHg 81%
    06:00 -15°C° 0 mm 5 mps 744 mmHg 80%
    07:00 -15°C° 0 mm 5 mps 745 mmHg 80%
    08:00 -16°C° 0 mm 6 mps 745 mmHg 79%
    09:00 -16°C° 0 mm 6 mps 746 mmHg 76%
    10:00 -15°C° 0 mm 7 mps 746 mmHg 73%
    11:00 -14°C° 0 mm 7 mps 746 mmHg 70%
    12:00 -14°C° 0 mm 7 mps 746 mmHg 69%
    13:00 -14°C° 0 mm 7 mps 747 mmHg 68%
    14:00 -13°C° 0 mm 7 mps 747 mmHg 67%
    15:00 -13°C° 0 mm 7 mps 747 mmHg 69%
    16:00 -14°C° 0 mm 6 mps 747 mmHg 72%
    17:00 -13°C° 0 mm 5 mps 748 mmHg 74%
    18:00 -14°C° 0 mm 6 mps 748 mmHg 75%
    19:00 -15°C° 0 mm 6 mps 749 mmHg 76%
    20:00 -15°C° 0 mm 6 mps 749 mmHg 77%
    21:00 -15°C° 0 mm 6 mps 749 mmHg 77%
    22:00 -15°C° 0 mm 6 mps 750 mmHg 78%
    23:00 -14°C° 0 mm 5 mps 750 mmHg 78%

    23 February, Saturday

    Time Temperature Precipitation Wind Pressure Humidity
    00:00 -14°C° 0 mm 5 mps 751 mmHg 80%
    01:00 -14°C° 0 mm 5 mps 751 mmHg 81%
    02:00 -14°C° 0 mm 5 mps 751 mmHg 82%
    03:00 -15°C° 0 mm 5 mps 752 mmHg 82%
    04:00 -15°C° 0 mm 5 mps 752 mmHg 83%
    05:00 -15°C° 0 mm 5 mps 753 mmHg 83%
    06:00 -15°C° 0 mm 5 mps 753 mmHg 84%
    07:00 -17°C° 0 mm 5 mps 753 mmHg 84%
    08:00 -16°C° 0 mm 4 mps 754 mmHg 85%
    09:00 -15°C° 0 mm 4 mps 754 mmHg 83%
    10:00 -14°C° 0 mm 4 mps 754 mmHg 81%
    11:00 -14°C° 0 mm 4 mps 754 mmHg 79%
    12:00 -12°C° 0 mm 4 mps 754 mmHg 77%
    13:00 -11°C° 0 mm 4 mps 754 mmHg 76%
    14:00 -11°C° 0 mm 4 mps 754 mmHg 74%
    15:00 -11°C° 0 mm 4 mps 754 mmHg 76%
    16:00 -12°C° 0 mm 3 mps 754 mmHg 77%
    17:00 -12°C° 0 mm 3 mps 754 mmHg 79%
    18:00 -10°C° 0 mm 2 mps 754 mmHg 81%
    19:00 -10°C° 0 mm 2 mps 754 mmHg 82%
    20:00 -10°C° 0 mm 2 mps 754 mmHg 83%
    21:00 -10°C° 0 mm 2 mps 754 mmHg 84%
    22:00 -10°C° 0 mm 2 mps 754 mmHg 85%
    23:00 -9°C° 0 mm 1 mps 754 mmHg 85%

    24 February, Sunday

    Time Temperature Precipitation Wind Pressure Humidity
    00:00 -9°C° 0 mm 1 mps 754 mmHg 86%
    01:00 -9°C° 0 mm 1 mps 753 mmHg 86%
    02:00 -9°C° 0 mm 1 mps 753 mmHg 86%
    03:00 -9°C° 0 mm 1 mps 753 mmHg 87%
    04:00 -9°C° 0 mm 2 mps 752 mmHg 89%
    05:00 -9°C° 0 mm 2 mps 752 mmHg 90%
    06:00 -9°C° 0.1 mm 2 mps 752 mmHg 91%
    07:00 -8°C° 0.1 mm 2 mps 752 mmHg 92%
    08:00 -8°C° 0.1 mm 2 mps 752 mmHg 93%
    09:00 -7°C° 0 mm 2 mps 752 mmHg 92%
    10:00 -6°C° 0 mm 2 mps 752 mmHg 91%
    11:00 -5°C° 0 mm 2 mps 752 mmHg 90%
    12:00 -5°C° 0 mm 2 mps 752 mmHg 89%
    13:00 -4°C° 0 mm 2 mps 752 mmHg 88%
    14:00 -2°C° 0 mm 1 mps 752 mmHg 87%
    15:00 -2°C° 0 mm 1 mps 752 mmHg 89%
    16:00 -2°C° 0 mm 1 mps 752 mmHg 91%
    17:00 -2°C° 0 mm 1 mps 752 mmHg 93%
    18:00 -2°C° 0 mm 1 mps 752 mmHg 94%
    19:00 -3°C° 0 mm 1 mps 752 mmHg 95%
    20:00 -3°C° 0 mm 1 mps 752 mmHg 96%
    21:00 -2°C° 0 mm 1 mps 752 mmHg 96%
    22:00 -4°C° 0 mm 2 mps 752 mmHg 96%
    23:00 -4°C° 0 mm 2 mps 752 mmHg 96%

    25 February, Monday

    Time Temperature Precipitation Wind Pressure Humidity
    00:00 -4°C° 0 mm 2 mps 752 mmHg 96%
    01:00 -4°C° 0 mm 2 mps 752 mmHg 96%
    02:00 -4°C° 0 mm 2 mps 752 mmHg 96%
    03:00 -5°C° 0 mm 3 mps 751 mmHg 96%
    04:00 -5°C° 0 mm 3 mps 751 mmHg 96%
    05:00 -4°C° 0 mm 3 mps 750 mmHg 96%
    06:00 -4°C° 0 mm 3 mps 750 mmHg 95%
    07:00 -4°C° 0 mm 4 mps 749 mmHg 95%
    08:00 -4°C° 0 mm 4 mps 749 mmHg 95%
    09:00 -4°C° 0 mm 5 mps 748 mmHg 94%
    10:00 -4°C° 0 mm 5 mps 748 mmHg 94%
    11:00 -2°C° 0 mm 5 mps 747 mmHg 93%
    12:00 -2°C° 0.1 mm 5 mps 746 mmHg 93%
    13:00 -2°C° 0.1 mm 5 mps 746 mmHg 93%
    14:00 -2°C° 0.1 mm 5 mps 745 mmHg 93%
    15:00 -1°C° 0.1 mm 5 mps 744 mmHg 93%
    16:00 -1°C° 0.1 mm 5 mps 744 mmHg 93%
    17:00 -1°C° 0.1 mm 5 mps 743 mmHg 92%
    18:00 -1°C° 0.1 mm 5 mps 743 mmHg 91%
    19:00 -2°C° 0.1 mm 5 mps 742 mmHg 90%
    20:00 -2°C° 0.1 mm 4 mps 742 mmHg 89%
    21:00 -2°C° 0 mm 4 mps 742 mmHg 90%
    22:00 -3°C° 0 mm 4 mps 742 mmHg 90%
    23:00 -4°C° 0 mm 4 mps 742 mmHg 91%
    Show more